period_start,C,m1,H,J0,J1,J2,J3,J4,J5,JA,JB,JC,JD,JJ,JK,JN,#
2018-01-19 00:00:01,0.13,13.07,0.00,20.93,22.21,25.24,14.08,46.13,1030.27,2041.91,900.02,1185.13,1365.99,599.86,608.06,56.69,0000 0000 0000 0000 000000
2018-01-19 00:05:03,0.10,13.07,0.00,20.89,22.20,25.25,14.10,46.10,1030.25,2041.93,899.79,1185.00,1365.52,599.79,608.41,56.74,0000 0000 0000 0000 000000
2018-01-19 00:10:04,0.11,13.08,0.00,20.88,22.19,25.21,14.16,46.22,1030.18,2041.96,899.06,1184.93,1365.02,599.69,608.09,56.79,0000 0000 0000 0000 000000
2018-01-19 00:15:05,0.11,13.08,0.00,20.86,22.19,25.21,14.06,46.13,1030.25,2041.95,898.91,1184.26,1364.92,599.94,608.41,56.84,0000 0000 0000 0000 000000
2018-01-19 00:20:06,0.18,13.10,0.00,20.84,22.18,25.27,14.15,46.27,1030.24,2041.95,898.09,1184.00,1364.11,600.07,608.53,56.89,0000 0000 0000 0000 000000
2018-01-19 00:25:07,0.07,13.10,0.00,20.87,22.17,25.25,14.17,46.23,1030.26,2041.97,897.76,1183.87,1363.92,600.11,608.39,56.94,0000 0000 0000 0000 000000
2018-01-19 00:30:09,0.22,13.11,0.00,20.81,22.17,25.24,14.11,46.38,1030.25,2041.98,897.04,1183.10,1363.15,599.71,608.20,57.00,0000 0000 0000 0000 000000
2018-01-19 00:35:10,0.01,13.11,0.00,20.80,22.15,25.22,14.12,46.34,1030.17,2041.99,896.90,1183.00,1362.99,599.94,608.45,57.05,0000 0000 0000 0000 000000
2018-01-19 00:40:11,0.19,13.12,0.00,20.79,22.14,25.18,14.03,46.31,1030.15,2041.98,896.10,1182.83,1362.42,599.44,608.06,57.10,0000 0000 0000 0000 000000
2018-01-19 00:45:12,0.10,13.13,0.00,20.76,22.14,25.17,14.09,46.39,1030.01,2041.99,895.93,1182.12,1362.00,599.91,608.43,57.15,0000 0000 0000 0000 000000
2018-01-19 00:50:14,0.14,13.13,0.00,20.75,22.13,25.16,14.18,46.28,1030.16,2041.98,895.18,1182.00,1361.69,600.06,608.67,57.20,0000 0000 0000 0000 000000
2018-01-19 00:55:15,0.05,13.14,0.00,20.77,22.12,25.17,14.08,46.19,1030.25,2041.99,895.00,1181.89,1361.04,600.08,608.62,57.25,0000 0000 0000 0000 000000
2018-01-19 01:00:16,0.20,13.15,0.00,20.73,22.12,25.13,14.12,46.22,1030.28,2041.99,894.38,1181.14,1360.97,599.95,608.68,57.30,0000 0000 0000 0000 000000
2018-01-19 01:05:18,0.07,13.15,0.00,20.72,22.10,25.13,14.20,46.17,1030.29,2041.99,894.01,1181.00,1360.21,600.09,608.81,57.35,0000 0000 0000 0000 000000
2018-01-19 01:10:19,0.10,13.16,0.00,20.72,22.09,25.11,14.18,46.20,1030.29,2041.98,893.58,1180.95,1359.99,600.39,609.13,57.40,0000 0000 0000 0000 000000
2018-01-19 01:15:20,0.16,13.16,0.00,20.72,22.09,25.09,14.12,46.10,1030.29,2041.99,893.02,1180.27,1359.65,599.95,608.54,57.45,0000 0000 0000 0000 000000
2018-01-19 01:20:22,0.08,13.17,0.00,20.69,22.07,25.11,14.12,46.23,1030.25,2041.99,892.79,1180.00,1359.03,599.90,608.56,57.50,0000 0000 0000 0000 000000
2018-01-19 01:25:23,0.09,13.18,0.00,20.69,22.07,25.09,14.17,46.12,1030.24,2041.99,892.06,1179.96,1358.97,600.20,608.88,57.55,0000 0000 0000 0000 000000
2018-01-19 01:30:24,0.13,13.18,0.00,20.65,22.06,25.04,14.14,46.24,1030.29,2041.99,891.97,1179.38,1358.41,599.88,608.91,57.60,0000 0000 0000 0000 000000
2018-01-19 01:35:26,0.14,13.19,0.00,20.66,22.04,25.04,14.12,46.09,1030.30,2041.99,891.30,1179.02,1358.01,600.06,608.92,57.65,0000 0000 0000 0000 000000
2018-01-19 01:40:27,0.01,13.19,0.00,20.67,22.04,25.05,14.12,46.15,1030.31,2042.00,891.00,1179.00,1357.98,600.13,609.06,57.70,0000 0000 0000 0000 000000
2018-01-19 01:45:28,0.08,13.19,0.00,20.65,22.02,25.06,14.17,46.13,1030.31,2042.00,890.81,1178.97,1357.50,600.28,609.06,57.75,0000 0000 0000 0000 000000
2018-01-19 01:50:29,0.18,13.20,0.00,20.66,22.02,25.04,14.07,46.10,1030.33,2042.01,890.11,1178.46,1357.03,599.64,608.52,57.80,0000 0000 0000 0000 000000
2018-01-19 01:55:30,0.04,13.21,0.00,20.68,22.00,25.02,14.12,46.12,1030.32,2042.01,889.98,1178.02,1357.00,600.23,609.14,57.85,0000 0000 0000 0000 000000
2018-01-19 02:00:32,0.11,13.21,0.00,20.66,21.99,24.99,14.12,46.35,1030.39,2042.04,889.57,1178.00,1356.89,600.43,609.27,57.91,0000 0000 0000 0000 000000
2018-01-19 02:05:33,0.08,13.22,0.00,20.64,21.98,24.98,14.10,46.35,1030.34,2042.07,889.02,1177.98,1356.20,599.74,608.71,57.96,0000 0000 0000 0000 000000
2018-01-19 02:10:34,0.08,13.22,0.00,20.63,21.97,24.96,14.09,46.28,1030.37,2042.04,888.93,1177.57,1356.00,600.02,608.91,58.01,0000 0000 0000 0000 000000
2018-01-19 02:15:35,0.17,13.23,0.00,20.63,21.96,24.97,14.12,46.27,1030.41,2042.11,888.16,1177.05,1355.91,600.16,609.04,58.06,0000 0000 0000 0000 000000
2018-01-19 02:20:37,0.07,13.23,0.00,20.63,21.95,24.95,14.19,46.29,1030.38,2042.20,888.00,1177.00,1355.20,600.16,609.08,58.11,0000 0000 0000 0000 000000
2018-01-19 02:25:38,0.11,13.24,0.00,20.64,21.94,24.99,14.14,46.12,1030.39,2042.33,887.66,1176.96,1355.00,600.29,609.12,58.16,0000 0000 0000 0000 000000
2018-01-19 02:30:39,0.15,13.25,0.00,20.63,21.93,24.96,14.11,46.18,1030.44,2042.35,887.02,1176.33,1354.84,599.93,608.97,58.21,0000 0000 0000 0000 000000
2018-01-19 02:35:40,0.15,13.25,0.00,20.64,21.92,24.95,14.16,46.20,1030.60,2042.64,886.91,1176.02,1354.11,599.62,608.72,58.26,0000 0000 0000 0000 000000
2018-01-19 02:40:42,0.14,13.26,0.00,20.60,21.92,24.93,14.08,46.16,1030.59,2042.89,886.13,1176.00,1354.00,599.89,609.04,58.31,0000 0000 0000 0000 000000
2018-01-19 02:45:43,0.03,13.26,0.00,20.64,21.91,24.96,14.09,46.38,1030.63,2042.91,885.98,1175.93,1353.74,599.72,608.83,58.36,0000 0000 0000 0000 000000
2018-01-19 02:50:44,0.24,13.27,0.00,20.61,21.89,24.97,14.11,46.42,1030.77,2042.86,885.28,1175.21,1353.06,599.57,608.84,58.41,0000 0000 0000 0000 000000
2018-01-19 02:55:45,0.01,13.28,0.00,20.61,21.89,24.92,14.06,46.38,1030.78,2042.79,885.00,1175.00,1352.98,599.54,608.76,58.46,0000 0000 0000 0000 000000
2018-01-19 03:00:47,0.18,13.28,0.00,20.61,21.88,24.91,14.13,46.03,1030.78,2042.91,884.60,1174.93,1352.34,600.22,609.45,58.51,0000 0000 0000 0000 000000
2018-01-19 03:05:48,0.13,13.29,0.00,20.60,21.87,24.89,14.04,46.05,1030.78,2042.94,884.02,1174.28,1352.00,599.80,609.07,58.56,0000 0000 0000 0000 000000
2018-01-19 03:10:49,0.03,13.29,0.00,20.57,21.87,24.92,14.13,46.17,1030.78,2042.97,883.86,1174.03,1351.96,600.31,609.64,58.61,0000 0000 0000 0000 000000
2018-01-19 03:15:51,0.16,13.30,0.00,20.55,21.85,24.89,14.16,46.26,1030.78,2042.97,883.09,1174.00,1351.39,599.99,609.27,58.66,0000 0000 0000 0000 000000
2018-01-19 03:20:52,0.09,13.30,0.00,20.57,21.84,24.93,14.22,46.21,1030.78,2042.97,882.97,1173.59,1351.00,600.06,609.32,58.71,0000 0000 0000 0000 000000
2018-01-19 03:25:53,0.17,13.31,0.00,20.55,21.84,24.92,14.12,46.30,1030.78,2042.98,882.29,1173.06,1350.82,600.02,609.45,58.76,0000 0000 0000 0000 000000
2018-01-19 03:30:55,0.06,13.32,0.00,20.56,21.83,24.93,14.07,46.25,1030.78,2042.99,881.98,1173.00,1350.06,599.85,609.22,58.81,0000 0000 0000 0000 000000
2018-01-19 03:35:56,0.16,13.32,0.00,20.53,21.82,24.87,14.13,46.52,1030.78,2042.99,881.32,1172.76,1349.97,599.89,609.32,58.86,0000 0000 0000 0000 000000
2018-01-19 03:40:58,0.12,13.33,0.00,20.53,21.82,24.88,14.19,46.38,1030.85,2042.99,881.00,1172.10,1349.43,600.41,609.87,58.92,0000 0000 0000 0000 000000
2018-01-19 03:45:59,0.07,13.34,0.00,20.55,21.81,24.88,14.10,46.48,1031.00,2042.99,880.72,1172.00,1349.01,599.52,609.04,58.97,0000 0000 0000 0000 000000
2018-01-19 03:51:00,0.09,13.34,0.00,20.53,21.79,24.88,14.17,46.34,1031.23,2042.99,880.04,1171.98,1348.92,600.04,609.79,59.02,0000 0000 0000 0000 000000
2018-01-19 03:56:02,0.13,13.35,0.00,20.53,21.79,24.87,14.16,46.18,1031.26,2042.99,879.99,1171.42,1348.15,600.04,609.82,59.07,0000 0000 0000 0000 000000
2018-01-19 04:01:03,0.14,13.36,0.00,20.51,21.78,24.87,14.17,46.42,1031.25,2042.99,879.35,1171.02,1348.00,599.99,609.79,59.12,0000 0000 0000 0000 000000
2018-01-19 04:06:04,0.04,13.36,0.00,20.52,21.77,24.88,14.21,46.56,1031.07,2043.00,878.99,1171.00,1347.77,600.12,609.72,59.17,0000 0000 0000 0000 000000
2018-01-19 04:11:05,0.16,13.36,0.00,20.50,21.77,24.86,14.03,46.48,1030.86,2043.00,878.62,1170.74,1347.08,599.52,609.11,59.22,0000 0000 0000 0000 000000
2018-01-19 04:16:07,0.11,13.37,0.00,20.51,21.77,24.89,14.25,46.49,1030.87,2043.00,878.03,1170.07,1346.99,600.21,609.77,59.27,0000 0000 0000 0000 000000
2018-01-19 04:21:08,0.06,13.37,0.00,20.46,21.75,24.79,14.11,46.37,1031.11,2043.00,877.88,1170.00,1346.54,599.84,609.65,59.32,0000 0000 0000 0000 000000
2018-01-19 04:26:09,0.13,13.38,0.00,20.45,21.74,24.81,14.09,46.49,1031.01,2043.00,877.11,1169.95,1346.02,599.78,609.49,59.37,0000 0000 0000 0000 000000
2018-01-19 04:31:10,0.09,13.39,0.00,20.45,21.74,24.81,14.17,46.57,1030.84,2043.00,876.98,1169.29,1345.98,600.06,609.60,59.42,0000 0000 0000 0000 000000
2018-01-19 04:36:12,0.17,13.39,0.00,20.43,21.72,24.81,14.17,46.38,1030.78,2043.01,876.47,1169.01,1345.45,600.30,609.89,59.47,0000 0000 0000 0000 000000
2018-01-19 04:41:13,0.04,13.40,0.00,20.40,21.72,24.75,14.10,46.20,1030.78,2043.04,876.01,1168.99,1345.02,599.94,609.54,59.52,0000 0000 0000 0000 000000
2018-01-19 04:46:15,0.14,13.40,0.00,20.40,21.71,24.80,14.02,46.31,1030.78,2043.03,875.60,1168.68,1344.96,599.53,609.28,59.57,0000 0000 0000 0000 000000
2018-01-19 04:51:16,0.15,13.41,0.00,20.35,21.69,24.78,14.08,46.40,1030.78,2043.04,875.02,1168.06,1344.30,599.67,609.34,59.62,0000 0000 0000 0000 000000
2018-01-19 04:56:17,0.06,13.42,0.00,20.32,21.69,24.75,14.19,46.43,1030.78,2043.05,874.79,1168.00,1344.01,600.57,610.46,59.67,0000 0000 0000 0000 000000
2018-01-19 05:01:18,0.19,6.71,0.00,20.28,21.70,24.74,12.31,41.10,1030.78,2046.25,2260.85,2187.86,2517.36,527.84,536.64,0.02,0000 0000 0000 0000 000002
2018-01-19 05:06:19,0.22,0.00,0.00,20.25,21.69,24.68,14.17,48.33,1030.78,2049.03,3458.32,3066.90,3527.48,600.23,610.21,0.04,0000 0000 0000 0000 000000
2018-01-19 05:11:21,0.22,0.01,0.00,20.26,21.67,24.67,14.21,48.23,1030.78,2049.05,3454.54,3063.93,3524.03,600.26,610.17,0.09,0000 0000 0000 0000 000000
2018-01-19 05:16:23,0.21,0.02,0.00,20.24,21.65,24.68,14.17,48.23,1030.77,2049.07,3451.52,3061.71,3521.40,599.80,609.83,0.14,0000 0000 0000 0000 000000
2018-01-19 05:21:24,0.18,0.02,0.00,20.24,21.64,24.71,14.21,48.02,1030.78,2049.13,3448.71,3059.75,3519.16,600.35,610.51,0.19,0000 0000 0000 0000 000000
2018-01-19 05:26:25,0.17,0.03,0.00,20.24,21.62,24.70,14.19,47.98,1030.78,2049.52,3446.14,3057.79,3516.63,600.13,610.31,0.24,0000 0000 0000 0000 000000
2018-01-19 05:31:27,0.15,0.04,0.00,20.22,21.61,24.69,14.09,47.78,1030.78,2049.69,3443.53,3055.90,3514.22,599.64,609.70,0.29,0000 0000 0000 0000 000000
2018-01-19 05:36:28,0.13,0.04,0.00,20.21,21.59,24.63,14.26,47.86,1030.78,2049.76,3440.90,3053.74,3511.75,600.01,610.06,0.34,0000 0000 0000 0000 000000
2018-01-19 05:41:29,0.09,0.05,0.00,20.22,21.58,24.71,14.24,47.72,1030.78,2049.78,3438.74,3052.20,3509.90,600.13,610.10,0.39,0000 0000 0000 0000 000000
2018-01-19 05:46:30,0.11,0.05,0.00,20.22,21.57,24.63,14.19,47.90,1030.78,2049.79,3436.64,3050.58,3508.07,600.19,610.27,0.44,0000 0000 0000 0000 000000
2018-01-19 05:51:32,0.10,0.06,0.00,20.22,21.56,24.59,14.14,47.79,1030.78,2049.95,3434.52,3049.09,3506.14,599.83,609.85,0.49,0000 0000 0000 0000 000000
2018-01-19 05:56:33,0.09,0.07,0.00,20.19,21.54,24.60,14.17,47.74,1030.78,2049.96,3432.47,3047.65,3504.30,600.12,610.24,0.54,0000 0000 0000 0000 000000
2018-01-19 06:01:34,0.09,0.07,0.00,20.15,21.53,24.62,14.08,47.71,1030.78,2049.98,3430.43,3046.11,3502.44,599.77,610.07,0.59,0000 0000 0000 0000 000000
2018-01-19 06:06:36,0.10,0.08,0.00,20.16,21.52,24.58,14.26,47.88,1030.76,2049.98,3428.32,3044.50,3500.59,600.09,610.46,0.64,0000 0000 0000 0000 000000
2018-01-19 06:11:37,0.11,0.08,0.00,20.11,21.51,24.58,14.24,47.85,1030.71,2049.98,3426.16,3042.86,3498.65,599.91,610.17,0.69,0000 0000 0000 0000 000000
2018-01-19 06:16:38,0.09,0.09,0.00,20.07,21.49,24.57,14.23,47.59,1030.55,2049.99,3424.04,3041.29,3496.72,600.20,610.44,0.74,0000 0000 0000 0000 000000
2018-01-19 06:21:40,0.09,0.09,0.00,20.08,21.48,24.53,14.12,47.58,1030.40,2049.98,3421.86,3039.83,3494.98,599.95,610.12,0.79,0000 0000 0000 0000 000000
2018-01-19 06:26:41,0.10,0.10,0.00,20.05,21.47,24.59,14.24,47.90,1030.44,2049.99,3419.77,3038.33,3493.19,599.85,609.88,0.84,0000 0000 0000 0000 000000
2018-01-19 06:31:43,0.09,0.10,0.00,20.04,21.45,24.49,14.20,47.83,1030.67,2049.99,3417.88,3036.79,3491.48,599.91,610.35,0.89,0000 0000 0000 0000 000000
2018-01-19 06:36:44,0.10,0.11,0.00,20.05,21.44,24.46,14.07,47.78,1030.59,2049.99,3415.82,3035.24,3489.60,599.55,609.90,0.94,0000 0000 0000 0000 000000
2018-01-19 06:41:45,0.11,0.11,0.00,20.01,21.42,24.47,14.35,47.91,1030.62,2050.00,3413.52,3033.53,3487.46,600.25,610.60,0.99,0000 0000 0000 0000 000000
2018-01-19 06:46:47,0.10,0.12,0.00,20.00,21.41,24.48,14.26,47.77,1030.65,2050.02,3411.34,3031.85,3485.44,600.05,610.45,1.04,0000 0000 0000 0000 000000
2018-01-19 06:51:48,0.13,0.12,0.00,19.97,21.39,24.48,14.18,48.07,1030.60,2050.01,3408.95,3029.90,3483.06,599.87,610.45,1.09,0000 0000 0000 0000 000000
2018-01-19 06:56:49,0.09,0.13,0.00,19.94,21.37,24.46,14.11,47.88,1030.48,2050.03,3406.84,3028.32,3481.12,599.72,610.16,1.14,0000 0000 0000 0000 000000
2018-01-19 07:01:50,0.11,0.13,0.00,19.91,21.36,24.42,14.17,48.04,1030.35,2050.06,3404.66,3026.68,3479.09,600.02,610.48,1.19,0000 0000 0000 0000 000000
2018-01-19 07:06:52,0.09,0.14,0.00,19.84,21.34,24.38,14.21,47.97,1030.29,2050.10,3402.58,3025.08,3477.23,600.18,610.70,1.24,0000 0000 0000 0000 000000
2018-01-19 07:11:53,0.10,0.14,0.00,19.82,21.32,24.31,14.21,47.91,1030.29,2050.21,3400.57,3023.71,3475.60,600.10,610.70,1.29,0000 0000 0000 0000 000000
2018-01-19 07:16:54,0.10,0.15,0.00,19.81,21.31,24.38,14.15,47.88,1030.28,2050.56,3398.74,3022.85,3474.24,599.77,610.53,1.34,0000 0000 0000 0000 000000
2018-01-19 07:21:56,0.11,0.16,0.00,19.79,21.29,24.38,14.22,47.87,1030.25,2050.84,3397.09,3021.65,3472.88,599.84,610.49,1.39,0000 0000 0000 0000 000000
2018-01-19 07:26:57,0.13,0.16,0.00,19.77,21.27,24.29,14.17,47.82,1030.29,2050.96,3394.57,3019.87,3470.48,600.11,610.82,1.44,0000 0000 0000 0000 000000
2018-01-19 07:31:58,0.11,0.17,0.00,19.76,21.25,24.23,14.18,47.67,1030.34,2050.97,3392.27,3017.94,3468.31,600.03,610.85,1.49,0000 0000 0000 0000 000000
2018-01-19 07:36:59,0.11,0.17,0.00,19.78,21.23,24.24,14.14,47.90,1030.39,2050.98,3390.14,3016.26,3466.25,600.03,610.66,1.54,0000 0000 0000 0000 000000
2018-01-19 07:42:01,0.11,0.18,0.00,19.77,21.22,24.28,14.18,47.82,1030.42,2050.99,3387.88,3014.49,3464.33,599.95,610.80,1.59,0000 0000 0000 0000 000000
2018-01-19 07:47:02,0.16,0.19,0.00,19.74,21.19,24.23,14.14,47.92,1030.34,2050.99,3385.09,3012.20,3461.68,599.86,610.71,1.64,0000 0000 0000 0000 000000
2018-01-19 07:52:03,0.17,0.20,0.00,19.76,21.18,24.32,14.21,47.99,1030.26,2050.99,3381.96,3009.35,3458.27,600.12,610.90,1.69,0000 0000 0000 0000 000000
2018-01-19 07:57:05,0.16,0.20,0.00,19.71,21.17,24.23,14.19,47.94,1030.08,2050.99,3378.98,3006.89,3455.34,599.83,610.43,1.74,0000 0000 0000 0000 000000
2018-01-19 08:02:06,0.19,0.21,0.00,19.70,21.15,24.22,14.21,48.01,1029.96,2051.00,3375.52,3003.78,3451.70,599.80,610.46,1.79,0000 0000 0000 0000 000000
2018-01-19 08:07:07,0.11,0.22,0.00,19.71,21.14,24.25,14.14,47.88,1030.20,2051.01,3373.03,3001.77,3449.21,599.90,610.68,1.84,0000 0000 0000 0000 000000
2018-01-19 08:12:08,0.14,0.23,0.00,19.70,21.12,24.23,14.21,47.81,1030.29,2051.03,3370.55,2999.51,3446.48,600.18,611.04,1.89,0000 0000 0000 0000 000000
2018-01-19 08:17:10,0.13,0.23,0.00,19.69,21.11,24.21,14.28,47.84,1030.30,2051.03,3368.27,2997.57,3444.28,600.28,611.08,1.94,0000 0000 0000 0000 000000
2018-01-19 08:22:11,0.12,0.24,0.00,19.67,21.09,24.14,14.17,47.76,1030.30,2051.04,3365.82,2995.43,3441.82,599.78,610.65,1.99,0000 0000 0000 0000 000000
2018-01-19 08:27:12,0.13,0.25,0.00,19.70,21.08,24.16,14.17,47.82,1030.31,2051.10,3363.42,2993.45,3439.60,599.89,610.66,2.04,0000 0000 0000 0000 000000
2018-01-19 08:32:14,0.13,0.25,0.00,19.70,21.07,24.16,14.19,47.80,1030.30,2051.28,3361.25,2991.70,3437.46,599.91,610.77,2.10,0000 0000 0000 0000 000000
2018-01-19 08:37:15,0.15,0.26,0.00,19.68,21.06,24.13,14.13,47.49,1030.30,2051.28,3358.55,2989.25,3434.75,599.93,610.90,2.15,0000 0000 0000 0000 000000
2018-01-19 08:42:16,0.12,0.27,0.00,19.70,21.04,24.17,14.20,47.76,1030.29,2051.55,3356.41,2987.58,3432.70,599.84,610.94,2.20,0000 0000 0000 0000 000000
2018-01-19 08:47:18,0.13,0.27,0.00,19.70,21.03,24.11,14.16,47.77,1030.29,2051.64,3354.13,2985.87,3430.78,599.70,610.48,2.25,0000 0000 0000 0000 000000
2018-01-19 08:52:19,0.11,0.28,0.00,19.71,21.02,24.07,14.24,47.81,1030.30,2051.92,3351.96,2984.31,3428.75,600.40,611.13,2.30,0000 0000 0000 0000 000000
2018-01-19 08:57:20,0.10,0.29,0.00,19.71,21.02,24.14,14.16,47.72,1030.30,2051.96,3349.78,2982.76,3426.85,599.72,610.58,2.35,0000 0000 0000 0000 000000
2018-01-19 09:02:21,0.10,0.29,0.00,19.71,21.00,24.14,14.29,47.82,1030.29,2051.98,3347.82,2981.33,3425.08,600.17,610.98,2.40,0000 0000 0000 0000 000000
2018-01-19 09:07:22,0.11,0.30,0.00,19.68,20.99,24.12,14.15,47.98,1030.22,2051.98,3345.72,2979.61,3423.17,600.02,610.86,2.45,0000 0000 0000 0000 000000
2018-01-19 09:12:23,0.09,0.30,0.00,19.67,20.99,24.10,14.16,47.94,1030.02,2051.99,3343.77,2978.01,3421.09,599.80,610.55,2.50,0000 0000 0000 0000 000000
2018-01-19 09:17:24,0.09,0.31,0.00,19.68,20.97,24.18,14.27,47.92,1029.95,2051.99,3341.76,2976.72,3419.42,600.53,611.19,2.55,0000 0000 0000 0000 000000
2018-01-19 09:22:25,0.09,0.31,0.00,19.64,20.97,24.12,14.13,48.01,1029.88,2051.99,3339.85,2975.53,3417.72,599.85,610.56,2.60,0000 0000 0000 0000 000000
2018-01-19 09:27:26,0.08,0.32,0.00,19.62,20.97,24.13,14.17,48.09,1029.81,2051.99,3337.97,2974.09,3416.15,599.96,610.70,2.65,0000 0000 0000 0000 000000
2018-01-19 09:32:27,0.10,0.32,0.00,19.62,20.95,24.04,14.18,47.95,1030.05,2051.99,3336.16,2972.68,3414.49,600.08,611.02,2.70,0000 0000 0000 0000 000000
2018-01-19 09:37:29,0.08,0.33,0.00,19.61,20.94,24.03,14.27,48.02,1030.02,2051.99,3334.34,2971.54,3412.99,600.19,611.08,2.75,0000 0000 0000 0000 000000
2018-01-19 09:42:30,0.08,0.33,0.00,19.60,20.94,24.03,14.21,47.84,1030.10,2051.99,3332.52,2970.34,3411.49,599.94,610.87,2.80,0000 0000 0000 0000 000000
2018-01-19 09:47:31,0.09,0.33,0.00,19.61,20.92,24.05,14.15,47.79,1030.27,2051.99,3330.61,2969.00,3409.82,600.20,611.10,2.85,0000 0000 0000 0000 000000
2018-01-19 09:52:32,0.08,0.34,0.00,19.62,20.92,24.07,14.19,47.86,1030.28,2051.99,3328.75,2967.89,3408.37,599.86,610.78,2.90,0000 0000 0000 0000 000000
2018-01-19 09:57:34,0.07,0.34,0.00,19.62,20.91,24.05,14.20,47.69,1030.29,2051.99,3327.15,2966.78,3407.00,600.05,611.13,2.95,0000 0000 0000 0000 000000
2018-01-19 10:02:35,0.08,0.35,0.00,19.62,20.89,24.02,14.30,47.82,1030.27,2052.01,3325.59,2965.77,3405.67,600.20,611.16,3.00,0000 0000 0000 0000 000000
2018-01-19 10:07:36,0.07,0.35,0.00,19.62,20.89,24.07,14.20,47.65,1030.22,2052.02,3323.80,2964.69,3404.26,600.14,611.17,3.05,0000 0000 0000 0000 000000
2018-01-19 10:12:37,0.09,0.35,0.00,19.61,20.88,24.04,14.25,47.66,1030.26,2052.03,3321.96,2963.46,3402.71,600.00,611.04,3.10,0000 0000 0000 0000 000000
2018-01-19 10:17:39,0.07,0.36,0.00,19.62,20.87,24.05,14.12,47.62,1030.17,2052.06,3320.18,2962.25,3401.24,599.72,610.77,3.15,0000 0000 0000 0000 000000
2018-01-19 10:22:40,0.08,0.36,0.00,19.64,20.87,24.13,14.21,47.72,1029.91,2052.05,3318.36,2961.10,3399.77,600.26,610.86,3.20,0000 0000 0000 0000 000000
2018-01-19 10:27:42,0.08,0.37,0.00,19.62,20.86,24.05,14.18,47.79,1029.83,2052.06,3316.56,2959.97,3398.34,600.07,610.82,3.25,0000 0000 0000 0000 000000
2018-01-19 10:32:43,0.08,0.37,0.00,19.61,20.85,24.08,14.10,47.63,1029.79,2052.07,3314.81,2958.85,3396.87,600.06,610.82,3.30,0000 0000 0000 0000 000000
2018-01-19 10:37:44,0.10,0.38,0.00,19.62,20.84,24.10,14.26,47.70,1029.76,2052.13,3312.97,2957.71,3395.49,600.17,610.87,3.35,0000 0000 0000 0000 000000
2018-01-19 10:42:45,0.11,0.38,0.00,19.61,20.84,24.07,14.11,47.66,1029.62,2052.20,3310.79,2956.25,3393.79,599.91,610.66,3.40,0000 0000 0000 0000 000000
2018-01-19 10:47:46,0.10,0.39,0.00,19.60,20.84,24.10,14.22,47.67,1029.62,2052.26,3308.55,2954.69,3391.76,599.96,610.58,3.45,0000 0000 0000 0000 000000
2018-01-19 10:52:48,0.09,0.39,0.00,19.61,20.84,24.07,14.20,47.93,1029.44,2052.27,3306.67,2953.47,3390.22,600.09,610.64,3.50,0000 0000 0000 0000 000000
2018-01-19 10:57:49,0.12,0.40,0.00,19.62,20.83,24.07,14.19,47.81,1029.35,2052.50,3304.66,2951.93,3388.32,599.95,610.47,3.55,0000 0000 0000 0000 000000
2018-01-19 11:02:50,0.11,0.40,0.00,19.60,20.82,24.08,14.25,47.85,1029.30,2052.55,3302.45,2950.44,3386.40,600.04,610.56,3.60,0000 0000 0000 0000 000000
2018-01-19 11:07:51,0.09,0.41,0.00,19.59,20.82,24.05,14.15,47.87,1029.30,2052.51,3300.42,2948.95,3384.56,599.95,610.50,3.65,0000 0000 0000 0000 000000
2018-01-19 11:12:53,0.11,0.41,0.00,19.60,20.82,24.06,14.21,47.76,1029.29,2052.56,3298.40,2947.68,3382.87,600.03,610.51,3.70,0000 0000 0000 0000 000000
2018-01-19 11:17:54,0.10,0.42,0.00,19.61,20.82,24.02,14.15,47.96,1029.31,2052.56,3296.34,2946.20,3381.10,599.88,610.32,3.75,0000 0000 0000 0000 000000
2018-01-19 11:22:55,0.11,0.42,0.00,19.58,20.82,24.03,14.09,47.86,1029.31,2052.78,3294.28,2944.71,3379.22,599.84,610.35,3.80,0000 0000 0000 0000 000000
2018-01-19 11:27:56,0.09,0.43,0.00,19.61,20.82,24.03,14.21,47.98,1029.35,2052.83,3292.32,2943.57,3377.51,600.25,610.64,3.85,0000 0000 0000 0000 000000
2018-01-19 11:32:57,0.10,0.44,0.00,19.61,20.81,24.11,14.20,47.83,1029.46,2052.88,3290.36,2942.01,3375.60,599.90,610.46,3.90,0000 0000 0000 0000 000000
2018-01-19 11:37:58,0.09,0.44,0.00,19.62,20.80,24.07,14.21,47.77,1029.60,2052.89,3288.43,2940.82,3374.02,600.15,610.79,3.95,0000 0000 0000 0000 000000
2018-01-19 11:42:59,0.08,0.44,0.00,19.62,20.80,24.00,14.12,47.85,1029.49,2052.91,3286.58,2939.70,3372.57,599.98,610.47,4.00,0000 0000 0000 0000 000000
2018-01-19 11:48:01,0.09,0.45,0.00,19.63,20.79,24.05,14.18,47.87,1029.56,2052.92,3284.74,2938.47,3370.95,600.05,610.51,4.05,0000 0000 0000 0000 000000
2018-01-19 11:53:02,0.08,0.45,0.00,19.61,20.79,24.08,14.18,47.88,1029.41,2052.94,3282.84,2937.33,3369.49,599.85,610.38,4.10,0000 0000 0000 0000 000000
2018-01-19 11:58:04,0.08,0.46,0.00,19.65,20.79,24.01,14.24,47.78,1029.39,2052.96,3280.96,2936.07,3367.83,600.10,610.54,4.15,0000 0000 0000 0000 000000
2018-01-19 12:03:05,0.08,0.46,0.00,19.65,20.79,24.11,14.27,48.00,1029.32,2052.98,3279.23,2934.98,3366.38,600.31,610.57,4.20,0000 0000 0000 0000 000000
2018-01-19 12:08:06,0.08,0.47,0.00,19.64,20.79,24.11,14.18,47.90,1029.32,2052.98,3277.45,2933.86,3364.85,599.77,610.23,4.25,0000 0000 0000 0000 000000
2018-01-19 12:13:08,0.08,0.47,0.00,19.63,20.79,24.13,14.13,47.68,1029.31,2052.95,3275.62,2932.76,3363.33,599.72,610.07,4.30,0000 0000 0000 0000 000000
2018-01-19 12:18:09,0.09,0.48,0.00,19.60,20.79,24.14,14.17,47.98,1029.32,2052.95,3273.71,2931.59,3361.75,599.76,610.23,4.35,0000 0000 0000 0000 000000
2018-01-19 12:23:10,0.08,0.48,0.00,19.65,20.79,24.08,14.19,47.72,1029.32,2052.96,3271.81,2930.36,3360.21,600.29,610.78,4.40,0000 0000 0000 0000 000000
2018-01-19 12:28:11,0.09,0.48,0.00,19.64,20.79,24.16,14.16,47.67,1029.32,2052.97,3269.92,2929.25,3358.64,599.93,610.30,4.45,0000 0000 0000 0000 000000
2018-01-19 12:33:12,0.09,0.49,0.00,19.66,20.79,24.14,14.14,47.73,1029.31,2052.92,3267.84,2927.84,3356.84,599.61,609.97,4.50,0000 0000 0000 0000 000000
2018-01-19 12:38:14,0.09,0.49,0.00,19.65,20.79,24.18,14.26,47.77,1029.30,2052.94,3265.91,2926.63,3355.29,600.04,610.34,4.56,0000 0000 0000 0000 000000
2018-01-19 12:43:15,0.08,0.50,0.00,19.67,20.79,24.14,14.13,47.67,1029.30,2052.91,3264.08,2925.48,3353.76,600.03,610.32,4.61,0000 0000 0000 0000 000000
2018-01-19 12:48:16,0.07,0.50,0.00,19.68,20.79,24.15,14.17,47.77,1029.14,2052.95,3262.39,2924.36,3352.33,599.98,610.21,4.66,0000 0000 0000 0000 000000
2018-01-19 12:53:18,0.09,0.51,0.00,19.67,20.79,24.18,14.16,47.66,1029.10,2052.97,3260.58,2923.26,3350.76,599.89,610.14,4.71,0000 0000 0000 0000 000000
2018-01-19 12:58:19,0.09,0.51,0.00,19.69,20.79,24.14,14.18,47.65,1028.95,2052.96,3258.55,2921.98,3348.99,600.10,610.18,4.76,0000 0000 0000 0000 000000